{"data":{"norad_id":47178,"intl_designator":"2020-088BJ","name":"STARLINK-1912","alt_names":[],"object_type":"PAYLOAD","status":"ACTIVE","operator":null,"country":"US","launch_date":"2020-11-25","launch_site_code":"AFETR","launch_vehicle":null,"mission":null,"orbit_class":"UNKNOWN","rcs_meters":null,"size_class":null,"mass_kg":null,"dimensions":null,"purposes":["comms"],"wikipedia_slug":null,"has_3d_model":false,"image_url":null,"decayed_at":null,"tle_current":{"epoch":"2026-05-24T18:34:30.861984Z","epoch_age_seconds":94042,"freshness":"FRESH","line1":"1 47178U 20088BJ  26144.77396831  .00075433  00000+0  62461-3 0  9999","line2":"2 47178  53.0457 268.8095 0002700  46.5533 313.5707 15.69596987304026","mean_motion":15.69596987,"eccentricity":0.00027,"inclination_deg":53.0457,"raan_deg":268.8095,"arg_perigee_deg":46.5533,"mean_anomaly_deg":313.5707,"bstar":0.00062461,"rev_number":30402,"period_min":91.743295376242,"perigee_km":358.23085923505,"apogee_km":361.86948030673,"semimajor_km":6738.1871697709,"source":"CELESTRAK","updated_at":"2026-05-25T13:38:16.522994Z"}}}